Alamogordo, NM

3:24 PM MDT on August 30, 2016 (GMT -0600)
Alamogordo-White Sands Regional

Weather History for KALM - November, 2011

Change the Weather History Date:

Wednesday, November 16, 2011

  Actual Average Record
Temperature  
Mean Temperature 50 °F -  
Max Temperature 66 °F 63 °F 83 °F (1966)
Min Temperature 35 °F 35 °F 16 °F (1956)
Degree Days  
Heating Degree Days 14    
Moisture  
Dew Point 26 °F    
Average Humidity 42    
Maximum Humidity 81    
Minimum Humidity 18    
Precipitation  
Precipitation 0.00 in - - ()
Sea Level Pressure  
Sea Level Pressure 30.10 in    
Wind  
Wind Speed 6 mph (NNE)    
Max Wind Speed 17 mph    
Max Gust Speed 22 mph    
Visibility 10 miles    
Events      
Averages and records for this station are not official NWS values.
T = Trace of Precipitation, MM = Missing Value Source: NWS Daily Summary

Daily Weather History Graph

Daily Weather History Graph

Search for Another Location

Airport or City:

Trip Planner

Search our weather history database for the weather conditions in past years. The results will help you decide how hot, cold, wet, or windy it might be!

Date:

Astronomy

Nov. 16, 2011 Rise Set
Actual Time 6:34 AM MST 5:02 PM MST
Civil Twilight 6:08 AM MST 5:28 PM MST
Nautical Twilight 5:38 AM MST 5:58 PM MST
Astronomical Twilight 5:09 AM MST 6:27 PM MST
Moon 10:15 PM MST (11/16) 11:14 AM MST (11/16)
Length of Visible Light 11h 19m
Length of Day
10h 27m
Waning Gibbous, 69% of the Moon is Illuminated
Nov 16
Waning Gibbous
Nov 18
Last Quarter
Nov 24
New
Dec 2
First Quarter
Dec 10
Full

Hourly Weather History & Observations

Time (MST) Temp. Windchill Dew Point Humidity Pressure Visibility Wind Dir Wind Speed Gust Speed Precip Events Conditions
12:15 AM 44.6 °F - 24.8 °F 46% 29.98 in 10.0 mi Calm Calm - N/A   Clear
12:55 AM 41.0 °F 38.0 °F 26.6 °F 57% 29.98 in 10.0 mi ENE 4.6 mph - N/A   Clear
1:15 AM 39.2 °F 35.9 °F 24.8 °F 56% 29.97 in 10.0 mi NNE 4.6 mph - N/A   Clear
1:35 AM 42.8 °F 40.1 °F 26.6 °F 53% 29.97 in 10.0 mi North 4.6 mph - N/A   Clear
1:55 AM 44.6 °F 43.1 °F 26.6 °F 49% 29.97 in 10.0 mi NNW 3.5 mph - N/A   Clear
2:15 AM 41.0 °F - 26.6 °F 57% 29.98 in 10.0 mi Calm Calm - N/A   Clear
2:35 AM 41.0 °F - 26.6 °F 57% 29.98 in 10.0 mi Calm Calm - N/A   Clear
2:55 AM 44.6 °F 43.1 °F 28.4 °F 53% 29.99 in 10.0 mi SW 3.5 mph - N/A   Clear
3:15 AM 42.8 °F 41.1 °F 28.4 °F 57% 29.99 in 10.0 mi South 3.5 mph - N/A   Clear
3:35 AM 39.2 °F 37.0 °F 28.4 °F 65% 29.99 in 10.0 mi South 3.5 mph - N/A   Clear
3:55 AM 41.0 °F 39.0 °F 30.2 °F 65% 29.99 in 10.0 mi SSE 3.5 mph - N/A   Clear
4:35 AM 39.2 °F 37.0 °F 28.4 °F 65% 30.00 in 10.0 mi SE 3.5 mph - N/A   Clear
5:15 AM 37.4 °F 34.9 °F 28.4 °F 70% 30.02 in 10.0 mi SSE 3.5 mph - N/A   Clear
5:35 AM 37.4 °F 34.9 °F 32.0 °F 81% 30.03 in 10.0 mi SSE 3.5 mph - N/A   Clear
5:55 AM 39.2 °F 35.0 °F 32.0 °F 75% 30.03 in 10.0 mi SSE 5.8 mph - N/A   Clear
6:35 AM 37.4 °F 33.8 °F 30.2 °F 75% 30.05 in 10.0 mi SE 4.6 mph - N/A   Clear
6:55 AM 37.4 °F 34.9 °F 30.2 °F 75% 30.07 in 10.0 mi ESE 3.5 mph - N/A   Clear
7:15 AM 35.6 °F 30.7 °F 28.4 °F 75% 30.07 in 10.0 mi ESE 5.8 mph - N/A   Clear
7:35 AM 41.0 °F 39.0 °F 32.0 °F 70% 30.09 in 10.0 mi ESE 3.5 mph - N/A   Clear
7:55 AM 44.6 °F 42.2 °F 33.8 °F 66% 30.10 in 10.0 mi SSE 4.6 mph - N/A   Clear
8:15 AM 46.4 °F 45.2 °F 33.8 °F 62% 30.12 in 10.0 mi South 3.5 mph - N/A   Clear
8:35 AM 48.2 °F - 32.0 °F 54% 30.13 in 10.0 mi SSE 5.8 mph - N/A   Clear
8:55 AM 50.0 °F - 32.0 °F 50% 30.13 in 10.0 mi South 3.5 mph - N/A   Clear
9:15 AM 50.0 °F - 32.0 °F 50% 30.14 in 10.0 mi Calm Calm - N/A   Clear
9:35 AM 53.6 °F - 32.0 °F 44% 30.14 in 10.0 mi Calm Calm - N/A   Clear
9:55 AM 55.4 °F - 30.2 °F 38% 30.15 in 10.0 mi Calm Calm - N/A   Clear
10:15 AM 57.2 °F - 30.2 °F 36% 30.15 in 10.0 mi NNW 10.4 mph - N/A   Clear
10:35 AM 59.0 °F - 28.4 °F 31% 30.15 in 10.0 mi NNW 12.7 mph 17.3 mph N/A   Clear
10:55 AM 59.0 °F - 28.4 °F 31% 30.15 in 10.0 mi NW 12.7 mph - N/A   Clear
11:15 AM 60.8 °F - 28.4 °F 29% 30.15 in 10.0 mi NNW 11.5 mph 16.1 mph N/A   Clear
11:35 AM 62.6 °F - 28.4 °F 27% 30.14 in 10.0 mi North 13.8 mph 20.7 mph N/A   Clear
11:55 AM 62.6 °F - 28.4 °F 27% 30.13 in 10.0 mi North 10.4 mph 19.6 mph N/A   Clear
12:15 PM 62.6 °F - 26.6 °F 26% 30.12 in 10.0 mi North 15.0 mph 20.7 mph N/A   Clear
12:35 PM 64.4 °F - 26.6 °F 24% 30.11 in 10.0 mi NNW 17.3 mph 21.9 mph N/A   Clear
12:55 PM 64.4 °F - 26.6 °F 24% 30.12 in 10.0 mi North 12.7 mph 20.7 mph N/A   Clear
1:15 PM 64.4 °F - 26.6 °F 24% 30.12 in 10.0 mi North 11.5 mph 17.3 mph N/A   Clear
1:35 PM 64.4 °F - 26.6 °F 24% 30.11 in 10.0 mi North 12.7 mph 18.4 mph N/A   Clear
1:55 PM 64.4 °F - 24.8 °F 22% 30.11 in 10.0 mi NW 16.1 mph 19.6 mph N/A   Clear
2:15 PM 66.2 °F - 24.8 °F 21% 30.11 in 10.0 mi NW 15.0 mph 21.9 mph N/A   Clear
2:35 PM 64.4 °F - 24.8 °F 22% 30.12 in 10.0 mi NNW 13.8 mph 19.6 mph N/A   Clear
2:55 PM 64.4 °F - 24.8 °F 22% 30.12 in 10.0 mi North 13.8 mph 20.7 mph N/A   Clear
3:15 PM 64.4 °F - 24.8 °F 22% 30.12 in 10.0 mi NNW 13.8 mph 18.4 mph N/A   Clear
3:35 PM 64.4 °F - 24.8 °F 22% 30.13 in 10.0 mi NW 13.8 mph 20.7 mph N/A   Clear
3:55 PM 64.4 °F - 19.4 °F 18% 30.13 in 10.0 mi NNW 15.0 mph 19.6 mph N/A   Clear
4:15 PM 62.6 °F - 19.4 °F 19% 30.14 in 10.0 mi NNW 12.7 mph - N/A   Clear
4:35 PM 62.6 °F - 19.4 °F 19% 30.14 in 10.0 mi NNW 11.5 mph - N/A   Clear
4:55 PM 59.0 °F - 19.4 °F 22% 30.15 in 10.0 mi North 9.2 mph - N/A   Clear
5:15 PM 57.2 °F - 19.4 °F 23% 30.16 in 10.0 mi NNW 9.2 mph - N/A   Clear
5:35 PM 55.4 °F - 19.4 °F 25% 30.17 in 10.0 mi North 6.9 mph - N/A   Clear
5:55 PM 53.6 °F - 17.6 °F 24% 30.18 in 10.0 mi NNE 6.9 mph - N/A   Clear
6:15 PM 51.8 °F - 19.4 °F 28% 30.18 in 10.0 mi NNE 10.4 mph - N/A   Clear
6:35 PM 51.8 °F - 17.6 °F 26% 30.19 in 10.0 mi NNE 9.2 mph - N/A   Clear
6:55 PM 51.8 °F - 17.6 °F 26% 30.20 in 10.0 mi NE 9.2 mph - N/A   Clear
7:15 PM 50.0 °F - 19.4 °F 30% 30.21 in 10.0 mi NE 9.2 mph - N/A   Clear
7:35 PM 50.0 °F - 19.4 °F 30% 30.21 in 10.0 mi NE 9.2 mph - N/A   Clear
8:35 PM 48.2 °F - 21.2 °F 34% 30.22 in 10.0 mi SSE 6.9 mph - N/A   Clear
8:55 PM 44.6 °F 43.1 °F 28.4 °F 53% 30.23 in 10.0 mi SSE 3.5 mph - N/A   Clear
9:15 PM 46.4 °F 44.3 °F 23.0 °F 40% 30.23 in 10.0 mi ESE 4.6 mph - N/A   Clear
9:35 PM 42.8 °F 39.3 °F 30.2 °F 61% 30.23 in 10.0 mi SSE 5.8 mph - N/A   Clear
9:55 PM 41.0 °F 38.0 °F 21.2 °F 45% 30.24 in 10.0 mi WSW 4.6 mph - N/A   Clear
10:15 PM 41.0 °F 39.0 °F 19.4 °F 42% 30.25 in 10.0 mi West 3.5 mph - N/A   Clear
10:35 PM 44.6 °F 43.1 °F 17.6 °F 34% 30.25 in 10.0 mi NW 3.5 mph - N/A   Clear
11:15 PM 37.4 °F 32.8 °F 17.6 °F 45% 30.25 in 10.0 mi NE 5.8 mph - N/A   Clear
11:35 PM 39.2 °F 34.2 °F 19.4 °F 45% 30.25 in 10.0 mi ENE 6.9 mph - N/A   Clear
11:55 PM 39.2 °F 35.0 °F 19.4 °F 45% 30.26 in 10.0 mi East 5.8 mph - N/A   Clear